Regional Weather Roundup
Issued by NWS State College, PA

Home | Current Version | Previous Version | Text Only | Print | Product List | Glossary On
Versions: 1 2 3 4 5 6 7 8 9 10 11 12 13 14 15 16 17 18 19 20 21 22 23 24 25 26 27 28 29 30 31 32 33 34 35 36 37 38 39 40 41 42 43 44 45 46 47 48 49 50
875
ASUS41 KCTP 111203
RWRCTP

REGIONAL WEATHER ROUNDUP
NATIONAL WEATHER SERVICE STATE COLLEGE PA
700 AM EST SUN DEC 11 2016

Note: "fair" indicates few or no clouds below 12,000 feet with no
significant weather and/or obstructions to visibility.

* = STATION THAT DOES NOT REPORT PRECIPITATION /E.G. RAIN...SNOW...ETC/
    THUNDER OR FOG.

PAZ002>004-007>009-013>016-020>023-029>032-111300-
WESTERN PENNSYLVANIA

CITY           SKY/WX    TMP DP  RH WIND       PRES   REMARKS
ERIE           LGT SNOW  24  18  77 S15       30.37F WCI  11
MEADVILLE      LGT SNOW  20  17  88 VRB3      30.33F FOG
FRANKLIN*        N/A     19  14  79 S7        30.37S WCI  10
NEW CASTLE     LGT SNOW  22  20  92 CALM      30.39F FOG
BEAVER COUNTY  NOT AVBL
BUTLER*        PTCLDY    21  18  86 S5        30.41R WCI  15
PITTSBURGH INT LGT SNOW  24  21  88 SE6       30.38F FOG
PITTSBURGH     LGT SNOW  22  18  85 S6        30.39R FOG     WCI  14
INDIANA*       CLOUDY    21  21 100 CALM      30.41F FOG
LATROBE        LGT SNOW  23  21  93 S6        30.40F
WASHINGTON CO* CLOUDY    21  18  86 CALM      30.39R
$$

PAZ004>006-010>012-017>019-024>028-033>037-041-042-045-046-049>053-111300-
CENTRAL PENNSYLVANIA

CITY           SKY/WX    TMP DP  RH WIND       PRES   REMARKS
BRADFORD       LGT SNOW  17  14  88 S5        30.32S FOG     WCI  10
DUBOIS         LGT SNOW  20  15  81 SE5       30.35F WCI  13
CLEARFIELD     LGT SNOW  20  18  92 CALM      30.40S FOG
JOHNSTOWN      LGT SNOW  18  16  92 SE6       30.31F FOG     WCI  10
ALTOONA        LGT SNOW  22  19  89 SE5       30.41F FOG
STATE COLLEGE  LGT SNOW  21  18  86 W7        30.43S WCI  13
WILLIAMSPORT   CLOUDY    24  17  74 CALM      30.49R
SELINSGROVE    CLOUDY    24  18  77 SW3       30.51R
FT INDIANTOWN  CLOUDY    24  18  80 SW5       30.52R
CAPITAL CITY   CLOUDY    26  16  65 W3        30.54R
HARRISBURG     CLOUDY    27  18  69 CALM      30.54R
YORK           CLOUDY    27  16  63 SW6       30.53R
$$

PAZ038>040-043-044-047-048-054-055-060>062-067>071-111300-
EASTERN PENNSYLVANIA

CITY           SKY/WX    TMP DP  RH WIND       PRES   REMARKS
SCRANTON       MOCLDY    23  15  71 CALM      30.45R
MOUNT POCONO   CLOUDY    17  11  77 NW5       30.38R WCI  10
ALLENTOWN      CLOUDY    25  17  72 SW5       30.51R
QUAKERTOWN*    CLOUDY    23  18  80 SW3       30.51R
READING        CLOUDY    25  17  72 CALM      30.52R
LANCASTER      CLOUDY    25  19  78 CALM      30.53R
COATESVILLE    MOSUNNY   25  18  74 CALM      30.53R
POTTSTOWN      CLOUDY    24  17  74 CALM      30.54R
BLUE BELL      CLOUDY    27  19  74 CALM      30.53R
DOYLESTOWN     CLOUDY    26  18  71 CALM      30.51R
WILLOW GROVE   NOT AVBL
NORTH PHILA    CLOUDY    29  16  58 CALM      30.56R
PHILADELPHIA   CLOUDY    30  15  53 SW3       30.56R
$$




USA.gov is the U.S. government's official web portal to all federal, state and local government web resources and services.